Location: Meadowbank Aerodrome
(65.0250°N, 96.0705°W)
Time: 23:15:35
(UTC-05:00)

Cosmos 2221 - Visible Passes

Search period start: 23 October 2017 00:00
Search period end: 02 November 2017 00:00
Orbit: 594 x 616 km, 82.5° (Epoch: 23 October)

Date Brightness Start Highest point End Pass type
(mag) Time Alt. Az. Time Alt. Az. Time Alt. Az.
23 Oct 5.1 03:56:30 10° N 03:59:51 21° NE 04:03:11 10° E visible
23 Oct 3.0 05:33:53 10° NNW 05:38:17 64° ENE 05:42:40 10° SSE visible
23 Oct 3.3 07:11:46 10° NNW 07:15:40 31° W 07:19:34 10° SSW visible
23 Oct 3.9 18:17:09 10° SE 18:20:15 19° E 18:23:22 10° NE visible
23 Oct 2.4 19:52:51 10° S 19:57:12 77° ESE 20:01:38 10° NNE visible
23 Oct 4.5 21:31:24 10° WSW 21:35:16 30° NW 21:39:10 10° N visible
23 Oct 5.7 23:12:26 10° NW 23:14:19 12° NNW 23:16:14 10° N visible
24 Oct 5.8 02:32:33 10° N 02:33:55 11° NNE 02:35:18 10° NE visible
24 Oct 4.8 04:09:26 10° N 04:13:08 25° NE 04:16:48 10° ESE visible
24 Oct 2.5 05:46:55 10° NNW 05:51:22 85° ENE 05:55:46 10° SSE visible
24 Oct 3.6 07:24:58 10° NNW 07:28:30 24° W 07:32:01 10° SW visible
24 Oct 3.6 18:29:27 10° SE 18:33:02 25° E 18:36:39 10° NNE visible
24 Oct 2.6 20:05:51 10° SSW 20:10:14 80° WNW 20:14:41 10° NNE visible
24 Oct 4.9 21:44:56 10° WSW 21:48:30 24° NW 21:52:07 10° N visible
24 Oct 5.9 23:26:36 10° NW 23:27:46 11° NNW 23:28:56 10° N visible
25 Oct 5.7 02:45:17 10° N 02:47:21 13° NNE 02:49:24 10° ENE visible
25 Oct 4.4 04:22:23 10° N 04:26:22 31° NE 04:30:19 10° ESE visible
25 Oct 2.4 05:59:57 10° NNW 06:04:22 72° WSW 06:08:45 10° S visible
25 Oct 3.9 07:38:16 10° NW 07:41:17 18° W 07:44:17 10° WSW visible
25 Oct 3.2 18:41:57 10° SSE 18:45:52 33° E 18:49:51 10° NNE visible
25 Oct 3.1 20:18:58 10° SSW 20:23:18 60° WNW 20:27:41 10° NNE visible
25 Oct 5.2 21:58:34 10° W 22:01:48 20° NW 22:05:04 10° N visible
26 Oct 5.5 02:58:08 10° N 03:00:44 15° NE 03:03:20 10° ENE visible
26 Oct 3.9 04:35:22 10° N 04:39:33 40° ENE 04:43:43 10° SE visible
26 Oct 2.6 06:13:01 10° NNW 06:17:19 52° W 06:21:36 10° S visible
26 Oct 4.2 07:51:47 10° NW 07:54:01 14° WNW 07:56:13 10° WSW visible
26 Oct 2.8 18:54:35 10° SSE 18:58:45 45° E 19:02:59 10° NNE visible
26 Oct 3.7 20:32:12 10° SW 20:36:25 45° WNW 20:40:41 10° NNE visible
26 Oct 5.4 22:12:19 10° WNW 22:15:08 16° NW 22:17:58 10° N visible
27 Oct 5.2 03:11:01 10° N 03:14:05 18° NE 03:17:08 10° E visible
27 Oct 3.3 04:48:21 10° NNW 04:52:42 52° ENE 04:57:00 10° SE visible
27 Oct 3.0 06:26:08 10° NNW 06:30:14 39° W 06:34:19 10° SSW visible
27 Oct 2.5 19:07:22 10° S 19:11:42 61° E 19:16:04 10° NNE visible
27 Oct 4.2 20:45:32 10° SW 20:49:35 35° WNW 20:53:40 10° N visible
27 Oct 5.6 22:26:11 10° WNW 22:28:30 14° NNW 22:30:50 10° N visible
28 Oct 5.8 01:47:25 10° NNE 01:48:04 10° NNE 01:48:43 10° NNE visible
28 Oct 4.9 03:23:57 10° N 03:27:24 22° NE 03:30:50 10° E visible
28 Oct 2.8 05:01:21 10° NNW 05:05:47 70° ENE 05:10:10 10° SSE visible
28 Oct 3.3 06:39:16 10° NNW 06:43:06 29° W 06:46:53 10° SSW visible
28 Oct 2.5 19:20:17 10° SSW 19:24:41 83° ESE 19:29:07 10° NNE visible
28 Oct 4.6 20:59:00 10° WSW 21:02:48 28° NW 21:06:38 10° N visible
28 Oct 5.7 22:40:11 10° NW 22:41:55 12° NNW 22:43:39 10° N visible
29 Oct 5.7 01:59:55 10° N 02:01:30 12° NNE 02:03:06 10° NE visible
29 Oct 4.6 03:36:54 10° N 03:40:39 27° NE 03:44:25 10° ESE visible
29 Oct 2.4 05:14:23 10° NNW 05:18:49 88° W 05:23:14 10° SSE visible
29 Oct 3.7 06:52:30 10° NNW 06:55:55 22° W 06:59:17 10° SW visible
29 Oct 2.8 19:33:19 10° SSW 19:37:42 74° WNW 19:42:09 10° NNE visible
29 Oct 4.9 21:12:33 10° W 21:16:03 23° NW 21:19:34 10° N visible
29 Oct 5.8 22:54:27 10° NNW 22:55:21 11° NNW 22:56:16 10° N visible
30 Oct 5.5 02:12:42 10° N 02:14:56 13° NNE 02:15:52 13° NE visible
30 Oct 4.4 03:49:51 10° N 03:52:37 28° NNE 03:52:37 28° NNE visible
30 Oct 4.0 05:27:26 10° NNW 05:38:08 - S 05:29:21 25° NNW visible
30 Oct 4.7 07:05:52 10° NW 07:06:06 11° NW 07:06:06 11° NW visible
30 Oct 3.1 18:09:17 10° SSE 18:13:18 36° E 18:17:21 10° NNE visible
30 Oct 3.3 19:46:28 10° SW 19:50:47 55° WNW 19:55:10 10° NNE visible
30 Oct 5.2 21:26:13 10° W 21:29:21 19° NW 21:32:30 10° N visible
31 Oct 5.4 02:25:34 10° N 02:27:26 15° NNE 02:27:26 15° NNE visible
31 Oct 4.8 04:02:49 10° NNW 04:04:14 19° N 04:04:14 19° N visible
31 Oct 4.8 05:40:31 10° NNW 05:41:02 13° NNW 05:41:02 13° NNW visible
31 Oct 2.8 18:21:58 10° S 18:26:12 49° E 18:30:29 10° NNE visible
31 Oct 3.8 19:59:44 10° SW 20:03:55 42° WNW 20:08:09 10° NNE visible
31 Oct 5.4 21:40:00 10° WNW 21:42:42 16° NW 21:45:24 10° N visible
01 Nov 5.4 02:38:28 10° N 02:39:33 14° N 02:39:33 14° N visible
01 Nov 5.1 04:15:49 10° NNW 04:16:22 13° NNW 04:16:22 13° NNW visible
01 Nov 2.5 18:34:47 10° S 18:39:09 67° ESE 18:43:33 10° NNE visible
01 Nov 4.3 20:13:06 10° WSW 20:17:06 33° NW 20:21:08 10° N visible
01 Nov 5.5 21:53:54 10° WNW 21:56:05 13° NNW 21:58:16 10° N visible
